UAL1654 SUMU-LEMD

Flight info

Callsign UAL1654
Flight time N/A
Altitude 39000
Route MOLBI UM540 ANISE UZ23 DAMTA VUMEV UZ14 AMBET UN857 FNR UB623 CVS UN873 IPERA N873 GDV N858 VASTO UN858 PESAS N858 PARKA Z165 SOTUK SOTU4C
Aircraft B78X/H-V/N

Departure

Time N/A
Airport Carrasco General Cesáreo L. Berisso International Airport (SUMU)

Arrival

Time 2026-05-06 16:09
Airport Adolfo Suárez Madrid–Barajas Airport (LEMD)
Time Latitude Longitude Altitude Speed Heading
2026-05-06 09:49 -4.65746 -33.00609 39000 ft 514 kts 22°
2026-05-06 09:49 -4.63967 -32.99789 39000 ft 514 kts 22°
2026-05-06 09:49 -4.57448 -32.96781 39000 ft 514 kts 22°
2026-05-06 09:50 -4.50924 -32.93773 39000 ft 514 kts 22°
2026-05-06 09:50 -4.44452 -32.90788 39000 ft 514 kts 22°
2026-05-06 09:51 -4.37931 -32.87782 39000 ft 514 kts 22°
2026-05-06 09:51 -4.31400 -32.84772 39000 ft 514 kts 22°
2026-05-06 09:52 -4.24892 -32.81772 39000 ft 514 kts 22°
2026-05-06 09:52 -4.18385 -32.78774 39000 ft 514 kts 22°
2026-05-06 09:53 -4.11893 -32.75784 39000 ft 514 kts 22°
2026-05-06 09:53 -4.05405 -32.72795 39000 ft 514 kts 22°
2026-05-06 09:54 -3.98897 -32.69798 39000 ft 514 kts 22°
2026-05-06 09:54 -3.92348 -32.66783 39000 ft 514 kts 22°
2026-05-06 09:55 -3.85841 -32.63787 39000 ft 514 kts 22°
2026-05-06 09:55 -3.80427 -32.61296 39000 ft 514 kts 22°
2026-05-06 09:56 -3.72842 -32.57805 39000 ft 514 kts 22°
2026-05-06 09:56 -3.67420 -32.55310 39000 ft 514 kts 22°
2026-05-06 09:57 -3.60910 -32.52315 39000 ft 514 kts 22°
2026-05-06 09:57 -3.54402 -32.49321 39000 ft 514 kts 22°
2026-05-06 09:58 -3.47888 -32.46325 39000 ft 514 kts 22°
2026-05-06 09:58 -3.41370 -32.43328 39000 ft 514 kts 22°
2026-05-06 09:59 -3.34844 -32.40328 39000 ft 514 kts 22°
2026-05-06 09:59 -3.28374 -32.37353 39000 ft 514 kts 22°
2026-05-06 10:00 -3.21863 -32.34361 39000 ft 514 kts 22°
2026-05-06 10:00 -3.15338 -32.31362 39000 ft 514 kts 22°
2026-05-06 10:01 -3.08817 -32.28365 39000 ft 514 kts 22°
2026-05-06 10:01 -3.02292 -32.25368 39000 ft 514 kts 22°
2026-05-06 10:02 -2.95817 -32.22393 39000 ft 514 kts 22°
2026-05-06 10:02 -2.89298 -32.19399 39000 ft 514 kts 22°
2026-05-06 10:03 -2.82774 -32.16402 39000 ft 514 kts 22°
2026-05-06 10:03 -2.76258 -32.13410 39000 ft 514 kts 22°
2026-05-06 10:04 -2.69712 -32.10404 39000 ft 514 kts 22°
2026-05-06 10:04 -2.63232 -32.07429 39000 ft 514 kts 22°
2026-05-06 10:05 -2.56717 -32.04439 39000 ft 514 kts 22°
2026-05-06 10:05 -2.50187 -32.01441 39000 ft 514 kts 22°
2026-05-06 10:06 -2.43696 -31.98463 39000 ft 514 kts 22°
2026-05-06 10:06 -2.37170 -31.95467 39000 ft 514 kts 22°
2026-05-06 10:07 -2.30686 -31.92493 39000 ft 514 kts 22°
2026-05-06 10:07 -2.24166 -31.89501 39000 ft 514 kts 22°
2026-05-06 10:08 -2.17612 -31.86494 39000 ft 514 kts 22°
2026-05-06 10:08 -2.11124 -31.83518 39000 ft 514 kts 22°
2026-05-06 10:09 -2.04596 -31.80524 39000 ft 514 kts 22°
2026-05-06 10:09 -1.98113 -31.77551 39000 ft 514 kts 22°
2026-05-06 10:10 -1.91589 -31.74559 39000 ft 514 kts 22°
2026-05-06 10:10 -1.85067 -31.71568 39000 ft 514 kts 22°
2026-05-06 10:11 -1.78584 -31.68596 39000 ft 514 kts 22°
2026-05-06 10:11 -1.72056 -31.65602 39000 ft 514 kts 22°
2026-05-06 10:12 -1.65529 -31.62610 39000 ft 514 kts 22°
2026-05-06 10:12 -1.59013 -31.59623 39000 ft 514 kts 22°
2026-05-06 10:13 -1.52482 -31.56629 39000 ft 515 kts 22°
2026-05-06 10:13 -1.46005 -31.53660 39000 ft 515 kts 22°
2026-05-06 10:14 -1.39471 -31.50666 39000 ft 515 kts 22°
2026-05-06 10:14 -1.32951 -31.47678 39000 ft 515 kts 22°
2026-05-06 10:15 -1.26453 -31.44700 39000 ft 515 kts 22°
2026-05-06 10:15 -1.19924 -31.41708 39000 ft 515 kts 22°
2026-05-06 10:16 -1.13432 -31.38733 39000 ft 515 kts 22°
2026-05-06 10:16 -1.06909 -31.35744 39000 ft 515 kts 22°
2026-05-06 10:17 -1.00383 -31.32755 39000 ft 515 kts 22°
2026-05-06 10:17 -0.93905 -31.29786 39000 ft 515 kts 22°
2026-05-06 10:18 -0.87385 -31.26799 39000 ft 515 kts 22°
2026-05-06 10:18 -0.80845 -31.23803 39000 ft 515 kts 22°
2026-05-06 10:19 -0.74335 -31.20821 39000 ft 515 kts 22°
2026-05-06 10:19 -0.67809 -31.17832 39000 ft 515 kts 22°
2026-05-06 10:20 -0.61291 -31.14846 39000 ft 515 kts 22°
2026-05-06 10:20 -0.54800 -31.11873 39000 ft 515 kts 22°
2026-05-06 10:21 -0.48260 -31.08877 39000 ft 515 kts 22°
2026-05-06 10:21 -0.41732 -31.05887 39000 ft 515 kts 22°
2026-05-06 10:22 -0.35255 -31.02920 39000 ft 515 kts 22°
2026-05-06 10:22 -0.28713 -30.99924 39000 ft 515 kts 22°
2026-05-06 10:23 -0.22223 -30.96951 39000 ft 515 kts 22°
2026-05-06 10:23 -0.16771 -30.94455 39000 ft 515 kts 22°
2026-05-06 10:24 -0.10244 -30.91465 39000 ft 515 kts 22°
2026-05-06 10:24 -0.03725 -30.88479 39000 ft 515 kts 22°
2026-05-06 10:25 0.02749 -30.85514 39000 ft 515 kts 22°
2026-05-06 10:25 0.09276 -30.82524 39000 ft 515 kts 22°
2026-05-06 10:26 0.15798 -30.79537 39000 ft 515 kts 22°
2026-05-06 10:26 0.22325 -30.76548 39000 ft 515 kts 22°
2026-05-06 10:27 0.28848 -30.73560 39000 ft 515 kts 22°
2026-05-06 10:27 0.35342 -30.70586 39000 ft 515 kts 22°
2026-05-06 10:28 0.41869 -30.67596 39000 ft 514 kts 22°
2026-05-06 10:28 0.48385 -30.64612 39000 ft 515 kts 22°
2026-05-06 10:29 0.54885 -30.61634 39000 ft 515 kts 22°
2026-05-06 10:29 0.61402 -30.58649 39000 ft 515 kts 22°
2026-05-06 10:30 0.67934 -30.55657 39000 ft 515 kts 22°
2026-05-06 10:30 0.74453 -30.52671 39000 ft 515 kts 22°
2026-05-06 10:31 0.80942 -30.49698 39000 ft 514 kts 22°
2026-05-06 10:31 0.87484 -30.46701 39000 ft 514 kts 22°
2026-05-06 10:32 0.93998 -30.43717 39000 ft 515 kts 22°
2026-05-06 10:32 1.00476 -30.40749 39000 ft 515 kts 22°
2026-05-06 10:33 1.07022 -30.37750 39000 ft 515 kts 22°
2026-05-06 10:33 1.13536 -30.34765 39000 ft 515 kts 22°
2026-05-06 10:34 1.20061 -30.31775 39000 ft 515 kts 22°
2026-05-06 10:34 1.26564 -30.28795 39000 ft 515 kts 22°
2026-05-06 10:35 1.33064 -30.25816 39000 ft 515 kts 22°
2026-05-06 10:35 1.39583 -30.22829 39000 ft 515 kts 22°
2026-05-06 10:36 1.46069 -30.19856 39000 ft 515 kts 22°
2026-05-06 10:36 1.52589 -30.16867 39000 ft 515 kts 22°
2026-05-06 10:37 1.59113 -30.13877 39000 ft 515 kts 22°
2026-05-06 10:37 1.65624 -30.10892 39000 ft 515 kts 22°
2026-05-06 10:38 1.72159 -30.07896 39000 ft 515 kts 22°
2026-05-06 10:38 1.78683 -30.04905 39000 ft 515 kts 22°
2026-05-06 10:39 1.85203 -30.01916 39000 ft 515 kts 22°
2026-05-06 10:39 1.91689 -29.98942 39000 ft 515 kts 22°
2026-05-06 10:40 1.98219 -29.95947 39000 ft 515 kts 22°
2026-05-06 10:40 2.04742 -29.92955 39000 ft 515 kts 22°
2026-05-06 10:41 2.11227 -29.89981 39000 ft 515 kts 22°
2026-05-06 10:41 2.17783 -29.86973 39000 ft 515 kts 22°
2026-05-06 10:42 2.24260 -29.84002 39000 ft 515 kts 22°
2026-05-06 10:42 2.30792 -29.81005 39000 ft 515 kts 22°
2026-05-06 10:43 2.37313 -29.78013 39000 ft 515 kts 22°
2026-05-06 10:44 2.47070 -29.73535 39000 ft 515 kts 22°
2026-05-06 10:44 2.53611 -29.70533 39000 ft 515 kts 22°
2026-05-06 10:45 2.60146 -29.67533 39000 ft 515 kts 22°
2026-05-06 10:45 2.66616 -29.64563 39000 ft 515 kts 22°
2026-05-06 10:46 2.73146 -29.61565 39000 ft 515 kts 22°
2026-05-06 10:46 2.79665 -29.58572 39000 ft 515 kts 22°
2026-05-06 10:47 2.86201 -29.55570 39000 ft 515 kts 22°
2026-05-06 10:47 2.92682 -29.52593 39000 ft 515 kts 22°
2026-05-06 10:48 2.99225 -29.49588 39000 ft 515 kts 22°
2026-05-06 10:48 3.05727 -29.46600 39000 ft 515 kts 22°
2026-05-06 10:49 3.12259 -29.43599 39000 ft 515 kts 22°
2026-05-06 10:49 3.17662 -29.41116 39000 ft 515 kts 22°
2026-05-06 10:50 3.24206 -29.38109 39000 ft 515 kts 22°
2026-05-06 10:50 3.30702 -29.35123 39000 ft 515 kts 22°
2026-05-06 10:51 3.37241 -29.32116 39000 ft 515 kts 22°
2026-05-06 10:51 3.43752 -29.29123 39000 ft 515 kts 22°
2026-05-06 10:52 3.50286 -29.26118 39000 ft 515 kts 22°
2026-05-06 10:52 3.56773 -29.23134 39000 ft 515 kts 22°
2026-05-06 10:53 3.63316 -29.20124 39000 ft 515 kts 22°
2026-05-06 10:53 3.69834 -29.17126 39000 ft 515 kts 22°
2026-05-06 10:54 3.76325 -29.14138 39000 ft 515 kts 22°
2026-05-06 10:54 3.82843 -29.11139 39000 ft 515 kts 22°
2026-05-06 10:55 3.89359 -29.08139 39000 ft 515 kts 22°
2026-05-06 10:55 3.95867 -29.05143 39000 ft 515 kts 22°
2026-05-06 10:56 4.02349 -29.02158 39000 ft 515 kts 22°
2026-05-06 10:56 4.08900 -28.99141 39000 ft 515 kts 22°
2026-05-06 10:57 4.15392 -28.96151 39000 ft 515 kts 22°
2026-05-06 10:57 4.21910 -28.93148 39000 ft 515 kts 22°
2026-05-06 10:58 4.28447 -28.90135 39000 ft 515 kts 22°
2026-05-06 10:58 4.34927 -28.87149 39000 ft 515 kts 22°
2026-05-06 10:59 4.41484 -28.84126 39000 ft 515 kts 22°
2026-05-06 10:59 4.47967 -28.81137 39000 ft 515 kts 22°
2026-05-06 11:00 4.54511 -28.78119 39000 ft 515 kts 22°
2026-05-06 11:00 4.60989 -28.75131 39000 ft 515 kts 22°
2026-05-06 11:01 4.67529 -28.72114 39000 ft 515 kts 22°
2026-05-06 11:01 4.74007 -28.69125 39000 ft 515 kts 22°
2026-05-06 11:02 4.80540 -28.66110 39000 ft 515 kts 22°
2026-05-06 11:02 4.87047 -28.63106 39000 ft 515 kts 22°
2026-05-06 11:03 4.93570 -28.60094 39000 ft 515 kts 22°
2026-05-06 11:03 5.00086 -28.57085 39000 ft 515 kts 22°
2026-05-06 11:04 5.06590 -28.54080 39000 ft 515 kts 22°
2026-05-06 11:04 5.13106 -28.51069 39000 ft 515 kts 22°
2026-05-06 11:05 5.19615 -28.48061 39000 ft 515 kts 22°
2026-05-06 11:05 5.26140 -28.45045 39000 ft 515 kts 22°
2026-05-06 11:06 5.32660 -28.42031 39000 ft 515 kts 22°
2026-05-06 11:06 5.39149 -28.39030 39000 ft 515 kts 22°
2026-05-06 11:07 5.45674 -28.36011 39000 ft 515 kts 22°
2026-05-06 11:07 5.52202 -28.32991 39000 ft 515 kts 22°
2026-05-06 11:08 5.58737 -28.29966 39000 ft 515 kts 22°
2026-05-06 11:08 5.65232 -28.26960 39000 ft 515 kts 22°
2026-05-06 11:09 5.71754 -28.23940 39000 ft 515 kts 22°
2026-05-06 11:09 5.78242 -28.20935 39000 ft 515 kts 22°
2026-05-06 11:10 5.84763 -28.17914 39000 ft 515 kts 22°
2026-05-06 11:10 5.91264 -28.14902 39000 ft 515 kts 22°
2026-05-06 11:11 5.97776 -28.11883 39000 ft 515 kts 22°
2026-05-06 11:11 6.04300 -28.08859 39000 ft 515 kts 22°
2026-05-06 11:12 6.10801 -28.05844 39000 ft 515 kts 22°
2026-05-06 11:12 6.17310 -28.02824 39000 ft 515 kts 22°
2026-05-06 11:13 6.23823 -27.99803 39000 ft 515 kts 22°
2026-05-06 11:13 6.30334 -27.96781 39000 ft 515 kts 22°
2026-05-06 11:14 6.36849 -27.93756 39000 ft 515 kts 22°
2026-05-06 11:14 6.43347 -27.90738 39000 ft 515 kts 22°
2026-05-06 11:15 6.48765 -27.88222 39000 ft 515 kts 22°
2026-05-06 11:15 6.55252 -27.85208 39000 ft 515 kts 22°
2026-05-06 11:16 6.61775 -27.82176 39000 ft 515 kts 22°
2026-05-06 11:16 6.68312 -27.79137 39000 ft 515 kts 22°
2026-05-06 11:17 6.74810 -27.76115 39000 ft 515 kts 22°
2026-05-06 11:17 6.81331 -27.73082 39000 ft 515 kts 22°
2026-05-06 11:18 6.87805 -27.70069 39000 ft 515 kts 22°
2026-05-06 11:18 6.94325 -27.67035 39000 ft 515 kts 22°
2026-05-06 11:19 7.00845 -27.63999 39000 ft 515 kts 22°
2026-05-06 11:19 7.07363 -27.60963 39000 ft 515 kts 22°
2026-05-06 11:20 7.13856 -27.57938 39000 ft 515 kts 22°
2026-05-06 11:20 7.20369 -27.54903 39000 ft 515 kts 22°
2026-05-06 11:21 7.26841 -27.51886 39000 ft 515 kts 22°
2026-05-06 11:21 7.33348 -27.48851 39000 ft 515 kts 22°
2026-05-06 11:22 7.39860 -27.45814 39000 ft 515 kts 22°
2026-05-06 11:22 7.46376 -27.42773 39000 ft 515 kts 22°
2026-05-06 11:23 7.52864 -27.39745 39000 ft 515 kts 22°
2026-05-06 11:23 7.59392 -27.36697 39000 ft 515 kts 22°
2026-05-06 11:24 7.65868 -27.33671 39000 ft 515 kts 22°
2026-05-06 11:24 7.72378 -27.30630 39000 ft 515 kts 22°
2026-05-06 11:25 7.78876 -27.27593 39000 ft 515 kts 22°
2026-05-06 11:25 7.85385 -27.24549 39000 ft 515 kts 22°
2026-05-06 11:26 7.91920 -27.21492 39000 ft 515 kts 22°
2026-05-06 11:26 7.98437 -27.18443 39000 ft 515 kts 22°
2026-05-06 11:27 8.04913 -27.15412 39000 ft 515 kts 22°
2026-05-06 11:27 8.11426 -27.12362 39000 ft 515 kts 22°
2026-05-06 11:28 8.17932 -27.09315 39000 ft 515 kts 22°
2026-05-06 11:28 8.24438 -27.06266 39000 ft 515 kts 22°
2026-05-06 11:29 8.30958 -27.03210 39000 ft 515 kts 22°
2026-05-06 11:29 8.37436 -27.00172 39000 ft 515 kts 22°
2026-05-06 11:30 8.43943 -26.97120 39000 ft 515 kts 22°
2026-05-06 11:30 8.50458 -26.94063 39000 ft 515 kts 22°
2026-05-06 11:31 8.56938 -26.91021 39000 ft 515 kts 22°
2026-05-06 11:31 8.63449 -26.87963 39000 ft 515 kts 22°
2026-05-06 11:32 8.69965 -26.84902 39000 ft 515 kts 22°
2026-05-06 11:32 8.76461 -26.81849 39000 ft 515 kts 22°
2026-05-06 11:33 8.82973 -26.78787 39000 ft 515 kts 22°
2026-05-06 11:33 8.89450 -26.75741 39000 ft 515 kts 22°
2026-05-06 11:34 8.95953 -26.72681 39000 ft 515 kts 22°
2026-05-06 11:34 9.02448 -26.69624 39000 ft 515 kts 22°
2026-05-06 11:35 9.08946 -26.66564 39000 ft 515 kts 22°
2026-05-06 11:35 9.15467 -26.63492 39000 ft 515 kts 22°
2026-05-06 11:36 9.21971 -26.60426 39000 ft 515 kts 22°
2026-05-06 11:36 9.28476 -26.57360 39000 ft 515 kts 22°
2026-05-06 11:37 9.34997 -26.54284 39000 ft 515 kts 22°
2026-05-06 11:37 9.41459 -26.51235 39000 ft 515 kts 22°
2026-05-06 11:38 9.47987 -26.48153 39000 ft 515 kts 22°
2026-05-06 11:38 9.54462 -26.45095 39000 ft 515 kts 22°
2026-05-06 11:39 9.60976 -26.42017 39000 ft 515 kts 22°
2026-05-06 11:39 9.67486 -26.38940 39000 ft 515 kts 22°
2026-05-06 11:40 9.73995 -26.35863 39000 ft 515 kts 22°
2026-05-06 11:40 9.80477 -26.32796 39000 ft 515 kts 22°
2026-05-06 11:41 9.85916 -26.30222 39000 ft 515 kts 22°
2026-05-06 11:41 9.92376 -26.27164 39000 ft 515 kts 22°
2026-05-06 11:42 9.98892 -26.24077 39000 ft 515 kts 22°
2026-05-06 11:42 10.05362 -26.21011 39000 ft 515 kts 22°
2026-05-06 11:43 10.11894 -26.17915 39000 ft 515 kts 22°
2026-05-06 11:43 10.18378 -26.14839 39000 ft 515 kts 22°
2026-05-06 11:44 10.28117 -26.10217 39000 ft 515 kts 22°
2026-05-06 11:44 10.34584 -26.07147 39000 ft 515 kts 22°
2026-05-06 11:45 10.41081 -26.04061 39000 ft 515 kts 22°
2026-05-06 11:45 10.47589 -26.00968 39000 ft 515 kts 22°
2026-05-06 11:46 10.54092 -25.97875 39000 ft 515 kts 22°
2026-05-06 11:46 10.60565 -25.94796 39000 ft 515 kts 22°
2026-05-06 11:47 10.67061 -25.91704 39000 ft 515 kts 22°
2026-05-06 11:47 10.73566 -25.88607 39000 ft 515 kts 22°
2026-05-06 11:48 10.80035 -25.85525 39000 ft 515 kts 22°
2026-05-06 11:48 10.86554 -25.82419 39000 ft 515 kts 22°
2026-05-06 11:49 10.93048 -25.79322 39000 ft 515 kts 22°
2026-05-06 11:49 10.99528 -25.76231 39000 ft 515 kts 22°
2026-05-06 11:50 11.06020 -25.73132 39000 ft 515 kts 22°
2026-05-06 11:50 11.12529 -25.70023 39000 ft 515 kts 22°
2026-05-06 11:51 11.19036 -25.66915 39000 ft 515 kts 22°
2026-05-06 11:51 11.25501 -25.63824 39000 ft 515 kts 22°
2026-05-06 11:52 11.32016 -25.60708 39000 ft 515 kts 22°
2026-05-06 11:52 11.38516 -25.57598 39000 ft 515 kts 22°
2026-05-06 11:53 11.45014 -25.54487 39000 ft 515 kts 22°
2026-05-06 11:53 11.51475 -25.51392 39000 ft 515 kts 22°
2026-05-06 11:54 11.57965 -25.48282 39000 ft 515 kts 22°
2026-05-06 11:54 11.64499 -25.45149 39000 ft 515 kts 22°
2026-05-06 11:55 11.70960 -25.42050 39000 ft 515 kts 22°
2026-05-06 11:55 11.77463 -25.38929 39000 ft 515 kts 22°
2026-05-06 11:56 11.83968 -25.35805 39000 ft 515 kts 22°
2026-05-06 11:56 11.90471 -25.32680 39000 ft 515 kts 22°
2026-05-06 11:57 11.96960 -25.29560 39000 ft 515 kts 22°
2026-05-06 11:57 12.03432 -25.26447 39000 ft 515 kts 22°
2026-05-06 11:58 12.09931 -25.23320 39000 ft 515 kts 22°
2026-05-06 11:58 12.16422 -25.20194 39000 ft 515 kts 22°
2026-05-06 11:59 12.22913 -25.17067 39000 ft 515 kts 22°
2026-05-06 11:59 12.29369 -25.13955 39000 ft 515 kts 22°
2026-05-06 12:00 12.35852 -25.10828 39000 ft 515 kts 22°
2026-05-06 12:00 12.42336 -25.07699 39000 ft 515 kts 22°
2026-05-06 12:01 12.48832 -25.04563 39000 ft 515 kts 22°
2026-05-06 12:01 12.55343 -25.01417 39000 ft 515 kts 22°
2026-05-06 12:02 12.61809 -24.98292 39000 ft 515 kts 22°
2026-05-06 12:02 12.68315 -24.95145 39000 ft 515 kts 22°
2026-05-06 12:03 12.74807 -24.92004 39000 ft 515 kts 22°
2026-05-06 12:03 12.81268 -24.88875 39000 ft 515 kts 22°
2026-05-06 12:04 12.87764 -24.85728 39000 ft 515 kts 22°
2026-05-06 12:04 12.94240 -24.82589 39000 ft 515 kts 22°
2026-05-06 12:05 13.00722 -24.79445 39000 ft 515 kts 22°
2026-05-06 12:05 13.07174 -24.76314 39000 ft 515 kts 22°
2026-05-06 12:06 13.13693 -24.73148 39000 ft 515 kts 22°
2026-05-06 12:06 13.20166 -24.70003 39000 ft 515 kts 22°
2026-05-06 12:07 13.26656 -24.66848 39000 ft 515 kts 22°
2026-05-06 12:07 13.33151 -24.63688 39000 ft 515 kts 22°
2026-05-06 12:08 13.39596 -24.60551 39000 ft 515 kts 22°
2026-05-06 12:08 13.45041 -24.57899 39000 ft 515 kts 22°
2026-05-06 12:09 13.51512 -24.54746 39000 ft 515 kts 22°
2026-05-06 12:09 13.58012 -24.51577 39000 ft 515 kts 22°
2026-05-06 12:10 13.64465 -24.48429 39000 ft 515 kts 23°
2026-05-06 12:10 13.70962 -24.45256 39000 ft 515 kts 23°
2026-05-06 12:11 13.77451 -24.42087 39000 ft 515 kts 23°
2026-05-06 12:11 13.83936 -24.38917 39000 ft 515 kts 23°
2026-05-06 12:12 13.90373 -24.35769 39000 ft 515 kts 23°
2026-05-06 12:12 13.96869 -24.32590 39000 ft 515 kts 23°
2026-05-06 12:13 14.03356 -24.29413 39000 ft 515 kts 23°
2026-05-06 12:13 14.09861 -24.26226 39000 ft 515 kts 23°
2026-05-06 12:14 14.16296 -24.23071 39000 ft 515 kts 23°
2026-05-06 12:14 14.22789 -24.19885 39000 ft 515 kts 23°
2026-05-06 12:15 14.29268 -24.16704 39000 ft 515 kts 23°
2026-05-06 12:15 14.35739 -24.13525 39000 ft 515 kts 23°
2026-05-06 12:16 14.42228 -24.10335 39000 ft 515 kts 23°
2026-05-06 12:16 14.48704 -24.07150 39000 ft 515 kts 23°
2026-05-06 12:17 14.55195 -24.03955 39000 ft 515 kts 23°
2026-05-06 12:17 14.61663 -24.00769 39000 ft 515 kts 23°
2026-05-06 12:18 14.68149 -23.97573 39000 ft 515 kts 23°
2026-05-06 12:18 14.74635 -23.94374 39000 ft 515 kts 23°
2026-05-06 12:19 14.81090 -23.91188 39000 ft 515 kts 23°
2026-05-06 12:19 14.87564 -23.87991 39000 ft 515 kts 23°
2026-05-06 12:20 14.94045 -23.84788 39000 ft 515 kts 23°
2026-05-06 12:20 15.00520 -23.81587 39000 ft 515 kts 23°
2026-05-06 12:21 15.06993 -23.78383 39000 ft 515 kts 23°
2026-05-06 12:21 15.13484 -23.75169 39000 ft 515 kts 23°
2026-05-06 12:22 15.19948 -23.71966 39000 ft 515 kts 23°
2026-05-06 12:22 15.26389 -23.68772 39000 ft 515 kts 23°
2026-05-06 12:23 15.32882 -23.65550 39000 ft 515 kts 23°
2026-05-06 12:23 15.39361 -23.62334 39000 ft 515 kts 23°
2026-05-06 12:24 15.45811 -23.59129 39000 ft 515 kts 23°
2026-05-06 12:24 15.52294 -23.55905 39000 ft 515 kts 23°
2026-05-06 12:25 15.58777 -23.52679 39000 ft 515 kts 23°
2026-05-06 12:25 15.65251 -23.49455 39000 ft 515 kts 23°
2026-05-06 12:26 15.71737 -23.46223 39000 ft 515 kts 23°
2026-05-06 12:26 15.78197 -23.43002 39000 ft 515 kts 23°
2026-05-06 12:27 15.84646 -23.39784 39000 ft 515 kts 23°
2026-05-06 12:27 15.91137 -23.36543 39000 ft 515 kts 23°
2026-05-06 12:28 15.97614 -23.33306 39000 ft 515 kts 23°
2026-05-06 12:28 16.04045 -23.30090 39000 ft 515 kts 23°
2026-05-06 12:29 16.10525 -23.26847 39000 ft 515 kts 23°
2026-05-06 12:29 16.17006 -23.23601 39000 ft 515 kts 23°
2026-05-06 12:30 16.23485 -23.20353 39000 ft 515 kts 23°
2026-05-06 12:30 16.29959 -23.17106 39000 ft 515 kts 23°
2026-05-06 12:31 16.36433 -23.13856 39000 ft 515 kts 23°
2026-05-06 12:31 16.42858 -23.10628 39000 ft 515 kts 23°
2026-05-06 12:32 16.49348 -23.07365 39000 ft 515 kts 23°
2026-05-06 12:32 16.55795 -23.04120 39000 ft 515 kts 23°
2026-05-06 12:33 16.62254 -23.00867 39000 ft 515 kts 23°
2026-05-06 12:33 16.67653 -22.98144 39000 ft 515 kts 23°
2026-05-06 12:34 16.74064 -22.94795 39000 ft 516 kts 25°
2026-05-06 12:34 16.80398 -22.91165 39000 ft 517 kts 27°
2026-05-06 12:35 16.86617 -22.87447 39000 ft 517 kts 27°
2026-05-06 12:35 16.92862 -22.83651 39000 ft 517 kts 28°
2026-05-06 12:36 16.99074 -22.79851 39000 ft 517 kts 28°
2026-05-06 12:36 17.05291 -22.76044 39000 ft 517 kts 28°
2026-05-06 12:37 17.11530 -22.72224 39000 ft 517 kts 28°
2026-05-06 12:37 17.17717 -22.68438 39000 ft 517 kts 28°
2026-05-06 12:38 17.23947 -22.64628 39000 ft 517 kts 28°
2026-05-06 12:38 17.30169 -22.60824 39000 ft 517 kts 28°
2026-05-06 12:39 17.36365 -22.57035 39000 ft 517 kts 28°
2026-05-06 12:39 17.42574 -22.53238 39000 ft 517 kts 28°
2026-05-06 12:40 17.48806 -22.49426 39000 ft 517 kts 28°
2026-05-06 12:40 17.55011 -22.45628 39000 ft 517 kts 28°
2026-05-06 12:41 17.61240 -22.41814 39000 ft 517 kts 28°
2026-05-06 12:41 17.67482 -22.37989 39000 ft 517 kts 28°
2026-05-06 12:42 17.73679 -22.34188 39000 ft 517 kts 28°
2026-05-06 12:42 17.79913 -22.30363 39000 ft 517 kts 28°
2026-05-06 12:43 17.86138 -22.26540 39000 ft 517 kts 28°
2026-05-06 12:43 17.92338 -22.22729 39000 ft 517 kts 28°
2026-05-06 12:44 17.98573 -22.18893 39000 ft 517 kts 28°
2026-05-06 12:44 18.04766 -22.15081 39000 ft 517 kts 28°
2026-05-06 12:45 18.10988 -22.11247 39000 ft 517 kts 28°
2026-05-06 12:46 18.20295 -22.05507 39000 ft 517 kts 28°
2026-05-06 12:46 18.26519 -22.01664 39000 ft 517 kts 28°
2026-05-06 12:47 18.32710 -21.97839 39000 ft 517 kts 28°
2026-05-06 12:47 18.38942 -21.93985 39000 ft 517 kts 28°
2026-05-06 12:48 18.45118 -21.90162 39000 ft 517 kts 28°
2026-05-06 12:48 18.51342 -21.86307 39000 ft 517 kts 28°
2026-05-06 12:49 18.57558 -21.82453 39000 ft 517 kts 28°
2026-05-06 12:49 18.63763 -21.78602 39000 ft 517 kts 28°
2026-05-06 12:50 18.69940 -21.74766 39000 ft 517 kts 28°
2026-05-06 12:50 18.76140 -21.70911 39000 ft 517 kts 28°
2026-05-06 12:51 18.82387 -21.67025 39000 ft 517 kts 28°
2026-05-06 12:51 18.88593 -21.63161 39000 ft 517 kts 28°
2026-05-06 12:52 18.94752 -21.59322 39000 ft 517 kts 28°
2026-05-06 12:52 19.00964 -21.55447 39000 ft 517 kts 28°
2026-05-06 12:53 19.07180 -21.51566 39000 ft 517 kts 28°
2026-05-06 12:53 19.13388 -21.47687 39000 ft 517 kts 28°
2026-05-06 12:54 19.19596 -21.43805 39000 ft 517 kts 28°
2026-05-06 12:54 19.25797 -21.39923 39000 ft 517 kts 28°
2026-05-06 12:55 19.31968 -21.36056 39000 ft 517 kts 28°
2026-05-06 12:55 19.38179 -21.32161 39000 ft 517 kts 28°
2026-05-06 12:56 19.44370 -21.28275 39000 ft 517 kts 28°
2026-05-06 12:56 19.50590 -21.24368 39000 ft 517 kts 28°
2026-05-06 12:57 19.56781 -21.20475 39000 ft 517 kts 28°
2026-05-06 12:57 19.62979 -21.16574 39000 ft 517 kts 28°
2026-05-06 12:58 19.69133 -21.12697 39000 ft 517 kts 28°
2026-05-06 12:58 19.75329 -21.08790 39000 ft 517 kts 28°
2026-05-06 12:59 19.80501 -21.05525 39000 ft 517 kts 28°
2026-05-06 12:59 19.86714 -21.01601 39000 ft 517 kts 28°
2026-05-06 13:00 19.92896 -20.97692 39000 ft 517 kts 28°
2026-05-06 13:00 19.99101 -20.93766 39000 ft 517 kts 28°
2026-05-06 13:01 20.05264 -20.89862 39000 ft 517 kts 28°
2026-05-06 13:01 20.11476 -20.85922 39000 ft 517 kts 28°
2026-05-06 13:02 20.17659 -20.81998 39000 ft 517 kts 28°
2026-05-06 13:02 20.23845 -20.78066 39000 ft 517 kts 28°
2026-05-06 13:03 20.30027 -20.74133 39000 ft 517 kts 28°
2026-05-06 13:03 20.36188 -20.70208 39000 ft 517 kts 28°
2026-05-06 13:04 20.42395 -20.66251 39000 ft 517 kts 28°
2026-05-06 13:04 20.48551 -20.62323 39000 ft 517 kts 28°
2026-05-06 13:05 20.54730 -20.58376 39000 ft 517 kts 28°
2026-05-06 13:05 20.60919 -20.54418 39000 ft 517 kts 28°
2026-05-06 13:06 20.67119 -20.50448 39000 ft 517 kts 28°
2026-05-06 13:06 20.73252 -20.46516 39000 ft 517 kts 28°
2026-05-06 13:07 20.79426 -20.42554 39000 ft 517 kts 28°
2026-05-06 13:07 20.85628 -20.38570 39000 ft 517 kts 28°
2026-05-06 13:08 20.91773 -20.34617 39000 ft 517 kts 28°
2026-05-06 13:08 20.97972 -20.30627 39000 ft 517 kts 28°
2026-05-06 13:09 21.04154 -20.26643 39000 ft 517 kts 28°
2026-05-06 13:09 21.10332 -20.22658 39000 ft 517 kts 28°
2026-05-06 13:10 21.16497 -20.18676 39000 ft 517 kts 28°
2026-05-06 13:10 21.22648 -20.14701 39000 ft 517 kts 28°
2026-05-06 13:11 21.28815 -20.10710 39000 ft 517 kts 28°
2026-05-06 13:11 21.34975 -20.06721 39000 ft 517 kts 28°
2026-05-06 13:12 21.41160 -20.02711 39000 ft 517 kts 28°
2026-05-06 13:12 21.47321 -19.98712 39000 ft 517 kts 28°
2026-05-06 13:13 21.53471 -19.94717 39000 ft 517 kts 28°
2026-05-06 13:13 21.59634 -19.90709 39000 ft 517 kts 28°
2026-05-06 13:14 21.65811 -19.86688 39000 ft 517 kts 28°
2026-05-06 13:14 21.72000 -19.82654 39000 ft 517 kts 28°
2026-05-06 13:15 21.78166 -19.78632 39000 ft 517 kts 29°
2026-05-06 13:15 21.84293 -19.74630 39000 ft 517 kts 29°
2026-05-06 13:16 21.90459 -19.70599 39000 ft 517 kts 29°
2026-05-06 13:16 21.96630 -19.66559 39000 ft 517 kts 29°
2026-05-06 13:17 22.02796 -19.62516 39000 ft 517 kts 29°
2026-05-06 13:17 22.08960 -19.58472 39000 ft 517 kts 29°
2026-05-06 13:18 22.15085 -19.54455 39000 ft 517 kts 29°
2026-05-06 13:18 22.21249 -19.50410 39000 ft 517 kts 29°
2026-05-06 13:19 22.27433 -19.46348 39000 ft 517 kts 29°
2026-05-06 13:19 22.33598 -19.42293 39000 ft 517 kts 29°
2026-05-06 13:20 22.39733 -19.38253 39000 ft 517 kts 29°
2026-05-06 13:20 22.45859 -19.34214 39000 ft 517 kts 29°
2026-05-06 13:21 22.52011 -19.30153 39000 ft 517 kts 29°
2026-05-06 13:21 22.58169 -19.26082 39000 ft 517 kts 29°
2026-05-06 13:22 22.64331 -19.22005 39000 ft 517 kts 29°
2026-05-06 13:22 22.70461 -19.17944 39000 ft 517 kts 29°
2026-05-06 13:23 22.76612 -19.13865 39000 ft 517 kts 29°
2026-05-06 13:23 22.82796 -19.09759 39000 ft 517 kts 29°
2026-05-06 13:24 22.88936 -19.05678 39000 ft 517 kts 29°
2026-05-06 13:24 22.95060 -19.01604 39000 ft 517 kts 29°
2026-05-06 13:25 23.01181 -18.97527 39000 ft 517 kts 29°
2026-05-06 13:25 23.06324 -18.94098 39000 ft 517 kts 29°
2026-05-06 13:26 23.12459 -18.90003 39000 ft 518 kts 29°
2026-05-06 13:26 23.18618 -18.85888 39000 ft 518 kts 29°
2026-05-06 13:27 23.24738 -18.81794 39000 ft 518 kts 29°
2026-05-06 13:27 23.30876 -18.77684 39000 ft 518 kts 29°
2026-05-06 13:28 23.37029 -18.73559 39000 ft 518 kts 29°
2026-05-06 13:28 23.43162 -18.69444 39000 ft 518 kts 29°
2026-05-06 13:29 23.49266 -18.65342 39000 ft 518 kts 29°
2026-05-06 13:29 23.55408 -18.61211 39000 ft 518 kts 29°
2026-05-06 13:30 23.61544 -18.57079 39000 ft 518 kts 29°
2026-05-06 13:30 23.67686 -18.52939 39000 ft 518 kts 29°
2026-05-06 13:31 23.73834 -18.48791 39000 ft 518 kts 29°
2026-05-06 13:31 23.79968 -18.44647 39000 ft 518 kts 29°
2026-05-06 13:32 23.86069 -18.40520 39000 ft 518 kts 29°
2026-05-06 13:32 23.92205 -18.36365 39000 ft 518 kts 29°
2026-05-06 13:33 23.98357 -18.32195 39000 ft 518 kts 29°
2026-05-06 13:33 24.04457 -18.28055 39000 ft 518 kts 29°
2026-05-06 13:34 24.10610 -18.23874 39000 ft 518 kts 29°
2026-05-06 13:34 24.16741 -18.19703 39000 ft 518 kts 29°
2026-05-06 13:35 24.22847 -18.15545 39000 ft 518 kts 29°
2026-05-06 13:35 24.28943 -18.11388 39000 ft 518 kts 29°
2026-05-06 13:36 24.35069 -18.07207 39000 ft 518 kts 30°
2026-05-06 13:36 24.41196 -18.03020 39000 ft 518 kts 30°
2026-05-06 13:37 24.47312 -17.98835 39000 ft 518 kts 30°
2026-05-06 13:37 24.53437 -17.94639 39000 ft 518 kts 30°
2026-05-06 13:38 24.59576 -17.90428 39000 ft 518 kts 30°
2026-05-06 13:38 24.65658 -17.86252 39000 ft 518 kts 30°
2026-05-06 13:39 24.71762 -17.82055 39000 ft 518 kts 30°
2026-05-06 13:39 24.77877 -17.77845 39000 ft 518 kts 30°
2026-05-06 13:40 24.84010 -17.73618 39000 ft 518 kts 30°
2026-05-06 13:40 24.90120 -17.69400 39000 ft 518 kts 30°
2026-05-06 13:41 24.96235 -17.65172 39000 ft 518 kts 30°
2026-05-06 13:41 25.02329 -17.60954 39000 ft 518 kts 30°
2026-05-06 13:42 25.08436 -17.56727 39000 ft 518 kts 30°
2026-05-06 13:42 25.14517 -17.52513 39000 ft 518 kts 30°
2026-05-06 13:43 25.20614 -17.48282 39000 ft 518 kts 30°
2026-05-06 13:43 25.26725 -17.44035 39000 ft 518 kts 30°
2026-05-06 13:44 25.32832 -17.39784 39000 ft 518 kts 30°
2026-05-06 13:44 25.38943 -17.35525 39000 ft 518 kts 30°
2026-05-06 13:45 25.45060 -17.31256 39000 ft 518 kts 30°
2026-05-06 13:45 25.54187 -17.24875 39000 ft 518 kts 30°
2026-05-06 13:46 25.60271 -17.20615 39000 ft 518 kts 30°
2026-05-06 13:46 25.66384 -17.16329 39000 ft 518 kts 30°
2026-05-06 13:47 25.72473 -17.12055 39000 ft 518 kts 30°
2026-05-06 13:47 25.78568 -17.07771 39000 ft 518 kts 30°
2026-05-06 13:48 25.84660 -17.03483 39000 ft 518 kts 30°
2026-05-06 13:48 25.90750 -16.99191 39000 ft 518 kts 30°
2026-05-06 13:49 25.96837 -16.94895 39000 ft 518 kts 30°
2026-05-06 13:49 26.02930 -16.90590 39000 ft 518 kts 30°
2026-05-06 13:50 26.09024 -16.86278 39000 ft 518 kts 30°
2026-05-06 13:50 26.15105 -16.81966 39000 ft 518 kts 30°
2026-05-06 13:51 26.20172 -16.78374 39000 ft 518 kts 30°
2026-05-06 13:51 26.26267 -16.74059 39000 ft 518 kts 30°
2026-05-06 13:52 26.32333 -16.69766 39000 ft 518 kts 30°
2026-05-06 13:52 26.38447 -16.65433 39000 ft 518 kts 30°
2026-05-06 13:53 26.44514 -16.61128 39000 ft 518 kts 30°
2026-05-06 13:53 26.50602 -16.56801 39000 ft 518 kts 30°
2026-05-06 13:54 26.56664 -16.52486 39000 ft 518 kts 30°
2026-05-06 13:54 26.62734 -16.48158 39000 ft 518 kts 30°
2026-05-06 13:55 26.68814 -16.43816 39000 ft 518 kts 30°
2026-05-06 13:55 26.74893 -16.39469 39000 ft 518 kts 30°
2026-05-06 13:56 26.80978 -16.35109 39000 ft 518 kts 30°
2026-05-06 13:56 26.87051 -16.30751 39000 ft 518 kts 30°
2026-05-06 13:57 26.93140 -16.26377 39000 ft 518 kts 30°
2026-05-06 13:57 26.99186 -16.22030 39000 ft 518 kts 30°
2026-05-06 13:58 27.05279 -16.17643 39000 ft 518 kts 30°
2026-05-06 13:58 27.11343 -16.13269 39000 ft 518 kts 30°
2026-05-06 13:59 27.17392 -16.08899 39000 ft 518 kts 30°
2026-05-06 13:59 27.23500 -16.04480 39000 ft 518 kts 30°
2026-05-06 14:00 27.29552 -16.00094 39000 ft 518 kts 30°
2026-05-06 14:00 27.35617 -15.95693 39000 ft 518 kts 30°
2026-05-06 14:01 27.41675 -15.91290 39000 ft 518 kts 30°
2026-05-06 14:01 27.47743 -15.86874 39000 ft 518 kts 30°
2026-05-06 14:02 27.53780 -15.82473 39000 ft 518 kts 30°
2026-05-06 14:02 27.59836 -15.78052 39000 ft 518 kts 31°
2026-05-06 14:03 27.65889 -15.73625 39000 ft 518 kts 31°
2026-05-06 14:03 27.71957 -15.69181 39000 ft 518 kts 31°
2026-05-06 14:04 27.77991 -15.64764 39000 ft 518 kts 31°
2026-05-06 14:04 27.84061 -15.60317 39000 ft 518 kts 31°
2026-05-06 14:05 27.90117 -15.55873 39000 ft 518 kts 31°
2026-05-06 14:05 27.96150 -15.51437 39000 ft 518 kts 31°
2026-05-06 14:06 28.02203 -15.46977 39000 ft 518 kts 31°
2026-05-06 14:06 28.08249 -15.42510 39000 ft 518 kts 31°
2026-05-06 14:07 28.14292 -15.38036 39000 ft 518 kts 31°
2026-05-06 14:07 28.20346 -15.33544 39000 ft 518 kts 31°
2026-05-06 14:08 28.26372 -15.29065 39000 ft 518 kts 31°
2026-05-06 14:08 28.32393 -15.24581 39000 ft 518 kts 31°
2026-05-06 14:09 28.38431 -15.20078 39000 ft 518 kts 31°
2026-05-06 14:09 28.44468 -15.15568 39000 ft 518 kts 31°
2026-05-06 14:10 28.50505 -15.11052 39000 ft 518 kts 31°
2026-05-06 14:10 28.56529 -15.06539 39000 ft 518 kts 31°
2026-05-06 14:11 28.62568 -15.02007 39000 ft 518 kts 31°
2026-05-06 14:11 28.68604 -14.97472 39000 ft 518 kts 31°
2026-05-06 14:12 28.74619 -14.92946 39000 ft 518 kts 31°
2026-05-06 14:12 28.80603 -14.88436 39000 ft 518 kts 31°
2026-05-06 14:13 28.86626 -14.83891 39000 ft 518 kts 31°
2026-05-06 14:13 28.92655 -14.79336 39000 ft 518 kts 31°
2026-05-06 14:14 28.98686 -14.74772 39000 ft 518 kts 31°
2026-05-06 14:14 29.04675 -14.70233 39000 ft 518 kts 31°
2026-05-06 14:15 29.10693 -14.65666 39000 ft 518 kts 31°
2026-05-06 14:15 29.16696 -14.61103 39000 ft 518 kts 31°
2026-05-06 14:16 29.22738 -14.56505 39000 ft 518 kts 31°
2026-05-06 14:16 29.27736 -14.52695 39000 ft 518 kts 31°
2026-05-06 14:17 29.33727 -14.48123 39000 ft 518 kts 31°
2026-05-06 14:17 29.39753 -14.43518 39000 ft 518 kts 31°
2026-05-06 14:18 29.45774 -14.38911 39000 ft 518 kts 31°
2026-05-06 14:18 29.51766 -14.34318 39000 ft 518 kts 31°
2026-05-06 14:19 29.57752 -14.29723 39000 ft 518 kts 31°
2026-05-06 14:19 29.63777 -14.25092 39000 ft 518 kts 31°
2026-05-06 14:20 29.69764 -14.20483 39000 ft 518 kts 31°
2026-05-06 14:20 29.75767 -14.15855 39000 ft 518 kts 31°
2026-05-06 14:21 29.81753 -14.11233 39000 ft 518 kts 31°
2026-05-06 14:21 29.87763 -14.06586 39000 ft 518 kts 31°
2026-05-06 14:22 29.93730 -14.01965 39000 ft 518 kts 31°
2026-05-06 14:22 29.99731 -13.97311 39000 ft 518 kts 31°
2026-05-06 14:23 30.05747 -13.92638 39000 ft 519 kts 31°
2026-05-06 14:23 30.11697 -13.88010 39000 ft 519 kts 32°
2026-05-06 14:24 30.17711 -13.83324 39000 ft 519 kts 32°
2026-05-06 14:24 30.23701 -13.78650 39000 ft 519 kts 32°
2026-05-06 14:25 30.29680 -13.73977 39000 ft 519 kts 32°
2026-05-06 14:25 30.35656 -13.69298 39000 ft 519 kts 32°
2026-05-06 14:26 30.41620 -13.64621 39000 ft 519 kts 32°
2026-05-06 14:26 30.47596 -13.59924 39000 ft 519 kts 32°
2026-05-06 14:27 30.53582 -13.55199 39000 ft 519 kts 32°
2026-05-06 14:27 30.59544 -13.50470 39000 ft 519 kts 32°
2026-05-06 14:28 30.65526 -13.45709 39000 ft 519 kts 32°
2026-05-06 14:28 30.71450 -13.40983 39000 ft 519 kts 32°
2026-05-06 14:29 30.77412 -13.36216 39000 ft 519 kts 32°
2026-05-06 14:29 30.83367 -13.31444 39000 ft 519 kts 32°
2026-05-06 14:30 30.89328 -13.26660 39000 ft 519 kts 32°
2026-05-06 14:30 30.95252 -13.21932 39000 ft 519 kts 32°
2026-05-06 14:31 31.01228 -13.17179 39000 ft 519 kts 32°
2026-05-06 14:31 31.07200 -13.12432 39000 ft 519 kts 32°
2026-05-06 14:32 31.13180 -13.07673 39000 ft 519 kts 32°
2026-05-06 14:32 31.19156 -13.02910 39000 ft 519 kts 32°
2026-05-06 14:33 31.25124 -12.98143 39000 ft 519 kts 32°
2026-05-06 14:33 31.31053 -12.93399 39000 ft 519 kts 32°
2026-05-06 14:34 31.37020 -12.88615 39000 ft 519 kts 32°
2026-05-06 14:34 31.43003 -12.83810 39000 ft 519 kts 32°
2026-05-06 14:35 31.48962 -12.79016 39000 ft 519 kts 32°
2026-05-06 14:35 31.54876 -12.74249 39000 ft 519 kts 32°
2026-05-06 14:36 31.60843 -12.69432 39000 ft 519 kts 32°
2026-05-06 14:36 31.66784 -12.64628 39000 ft 519 kts 32°
2026-05-06 14:37 31.72760 -12.59787 39000 ft 519 kts 32°
2026-05-06 14:37 31.78688 -12.54977 39000 ft 519 kts 32°
2026-05-06 14:38 31.84658 -12.50124 39000 ft 519 kts 32°
2026-05-06 14:38 31.90554 -12.45322 39000 ft 519 kts 32°
2026-05-06 14:39 31.96511 -12.40463 39000 ft 519 kts 32°
2026-05-06 14:39 32.02441 -12.35638 39000 ft 519 kts 32°
2026-05-06 14:40 32.08388 -12.30800 39000 ft 519 kts 32°
2026-05-06 14:40 32.14339 -12.25952 39000 ft 519 kts 32°
2026-05-06 14:41 32.20292 -12.21096 39000 ft 519 kts 32°
2026-05-06 14:41 32.26203 -12.16265 39000 ft 519 kts 32°
2026-05-06 14:42 32.32186 -12.11365 39000 ft 519 kts 32°
2026-05-06 14:42 32.38092 -12.06519 39000 ft 519 kts 32°
2026-05-06 14:43 32.44020 -12.01646 39000 ft 519 kts 32°
2026-05-06 14:43 32.48973 -11.97569 39000 ft 519 kts 32°
2026-05-06 14:44 32.54905 -11.92676 39000 ft 519 kts 32°
2026-05-06 14:45 32.63799 -11.85327 39000 ft 519 kts 32°
2026-05-06 14:45 32.69735 -11.80410 39000 ft 519 kts 32°
2026-05-06 14:46 32.75641 -11.75510 39000 ft 519 kts 32°
2026-05-06 14:46 32.81570 -11.70583 39000 ft 519 kts 32°
2026-05-06 14:47 32.87501 -11.65646 39000 ft 519 kts 33°
2026-05-06 14:47 32.93415 -11.60714 39000 ft 519 kts 33°
2026-05-06 14:48 32.99350 -11.55756 39000 ft 519 kts 33°
2026-05-06 14:48 33.05234 -11.50831 39000 ft 519 kts 33°
2026-05-06 14:49 33.11151 -11.45868 39000 ft 519 kts 33°
2026-05-06 14:49 33.17053 -11.40904 39000 ft 519 kts 33°
2026-05-06 14:50 33.22956 -11.35922 39000 ft 519 kts 33°
2026-05-06 14:50 33.28865 -11.30920 39000 ft 519 kts 33°
2026-05-06 14:51 33.34761 -11.25917 39000 ft 519 kts 33°
2026-05-06 14:51 33.40657 -11.20903 39000 ft 519 kts 33°
2026-05-06 14:52 33.46511 -11.15915 39000 ft 519 kts 33°
2026-05-06 14:52 33.52404 -11.10885 39000 ft 519 kts 33°
2026-05-06 14:53 33.58278 -11.05861 39000 ft 519 kts 33°
2026-05-06 14:53 33.64167 -11.00816 39000 ft 519 kts 33°
2026-05-06 14:54 33.70070 -10.95748 39000 ft 519 kts 33°
2026-05-06 14:54 33.75957 -10.90687 39000 ft 519 kts 33°
2026-05-06 14:55 33.81814 -10.85642 39000 ft 519 kts 33°
2026-05-06 14:55 33.87688 -10.80574 39000 ft 519 kts 33°
2026-05-06 14:56 33.93546 -10.75511 39000 ft 519 kts 33°
2026-05-06 14:56 33.99443 -10.70404 39000 ft 519 kts 33°
2026-05-06 14:57 34.05323 -10.65304 39000 ft 519 kts 33°
2026-05-06 14:57 34.11158 -10.60234 39000 ft 519 kts 33°
2026-05-06 14:58 34.17032 -10.55121 39000 ft 519 kts 33°
2026-05-06 14:58 34.22889 -10.50013 39000 ft 519 kts 33°
2026-05-06 14:59 34.28755 -10.44889 39000 ft 519 kts 33°
2026-05-06 14:59 34.34603 -10.39770 39000 ft 519 kts 33°
2026-05-06 15:00 34.40467 -10.34628 39000 ft 519 kts 33°
2026-05-06 15:00 34.46335 -10.29473 39000 ft 519 kts 33°
2026-05-06 15:01 34.52157 -10.24348 39000 ft 519 kts 33°
2026-05-06 15:01 34.58021 -10.19173 39000 ft 519 kts 34°
2026-05-06 15:02 34.63879 -10.14010 39000 ft 519 kts 33°
2026-05-06 15:02 34.69713 -10.08882 39000 ft 519 kts 33°
2026-05-06 15:03 34.75572 -10.03731 39000 ft 519 kts 33°
2026-05-06 15:03 34.81448 -9.98558 39000 ft 519 kts 33°
2026-05-06 15:04 34.87283 -9.93411 39000 ft 519 kts 33°
2026-05-06 15:04 34.93124 -9.88248 39000 ft 519 kts 33°
2026-05-06 15:05 34.98986 -9.83055 39000 ft 519 kts 34°
2026-05-06 15:05 35.04834 -9.77864 39000 ft 519 kts 34°
2026-05-06 15:06 35.10682 -9.72663 39000 ft 519 kts 34°
2026-05-06 15:06 35.16533 -9.67449 39000 ft 519 kts 34°
2026-05-06 15:07 35.22340 -9.62264 39000 ft 519 kts 34°
2026-05-06 15:07 35.28182 -9.57037 39000 ft 519 kts 34°
2026-05-06 15:08 35.34035 -9.51792 39000 ft 519 kts 34°
2026-05-06 15:08 35.39865 -9.46557 39000 ft 519 kts 34°
2026-05-06 15:09 35.45656 -9.41347 39000 ft 519 kts 34°
2026-05-06 15:09 35.51513 -9.36068 39000 ft 519 kts 34°
2026-05-06 15:10 35.57282 -9.30858 39000 ft 519 kts 34°
2026-05-06 15:10 35.63128 -9.25569 39000 ft 519 kts 34°
2026-05-06 15:11 35.68289 -9.20891 39000 ft 519 kts 34°
2026-05-06 15:11 35.74122 -9.15594 39000 ft 519 kts 34°
2026-05-06 15:12 35.79926 -9.10313 39000 ft 519 kts 34°
2026-05-06 15:12 35.85751 -9.05002 39000 ft 519 kts 34°
2026-05-06 15:13 35.91526 -8.99724 39000 ft 519 kts 34°
2026-05-06 15:13 35.97164 -8.94114 39000 ft 522 kts 40°
2026-05-06 15:14 36.02295 -8.87713 39001 ft 523 kts 45°
2026-05-06 15:14 36.07116 -8.80981 39000 ft 524 kts 47°
2026-05-06 15:15 36.11800 -8.74126 39000 ft 524 kts 48°
2026-05-06 15:15 36.16485 -8.67167 39000 ft 524 kts 48°
2026-05-06 15:16 36.21163 -8.60214 39000 ft 524 kts 48°
2026-05-06 15:16 36.25828 -8.53308 39000 ft 524 kts 48°
2026-05-06 15:17 36.30526 -8.46387 39000 ft 524 kts 48°
2026-05-06 15:17 36.35213 -8.39511 39000 ft 524 kts 48°
2026-05-06 15:18 36.39912 -8.32631 39000 ft 524 kts 48°
2026-05-06 15:18 36.44633 -8.25726 39000 ft 524 kts 48°
2026-05-06 15:19 36.49351 -8.18819 39000 ft 524 kts 48°
2026-05-06 15:19 36.54066 -8.11912 39000 ft 524 kts 48°
2026-05-06 15:20 36.58789 -8.04985 39000 ft 524 kts 48°
2026-05-06 15:20 36.63500 -7.98065 39000 ft 524 kts 48°
2026-05-06 15:21 36.68193 -7.91155 39000 ft 524 kts 48°
2026-05-06 15:21 36.72920 -7.84177 39000 ft 524 kts 48°
2026-05-06 15:22 36.77598 -7.77254 39000 ft 524 kts 48°
2026-05-06 15:22 36.82312 -7.70259 39000 ft 524 kts 48°
2026-05-06 15:23 36.86989 -7.63304 39000 ft 524 kts 48°
2026-05-06 15:23 36.91654 -7.56348 39000 ft 524 kts 48°
2026-05-06 15:24 36.96323 -7.49370 39000 ft 524 kts 48°
2026-05-06 15:24 37.00950 -7.42435 39000 ft 524 kts 48°
2026-05-06 15:25 37.05614 -7.35461 39000 ft 524 kts 48°
2026-05-06 15:25 37.10311 -7.28468 39000 ft 524 kts 48°
2026-05-06 15:26 37.15025 -7.21455 39000 ft 524 kts 48°
2026-05-06 15:26 37.19689 -7.14509 39000 ft 524 kts 48°
2026-05-06 15:27 37.24403 -7.07474 39000 ft 524 kts 48°
2026-05-06 15:27 37.29087 -7.00465 39000 ft 524 kts 48°
2026-05-06 15:28 37.33773 -6.93436 39000 ft 524 kts 48°
2026-05-06 15:28 37.38426 -6.86439 39000 ft 524 kts 48°
2026-05-06 15:29 37.43113 -6.79372 39000 ft 524 kts 48°
2026-05-06 15:29 37.47763 -6.72345 39000 ft 524 kts 48°
2026-05-06 15:30 37.52440 -6.65261 39000 ft 524 kts 48°
2026-05-06 15:30 37.57101 -6.58184 39000 ft 524 kts 49°
2026-05-06 15:31 37.61737 -6.51129 39000 ft 524 kts 49°
2026-05-06 15:31 37.66405 -6.44010 39000 ft 524 kts 49°
2026-05-06 15:32 37.73359 -6.33373 39000 ft 524 kts 49°
2026-05-06 15:32 37.78006 -6.26246 39000 ft 524 kts 49°
2026-05-06 15:33 37.82638 -6.19123 39000 ft 524 kts 49°
2026-05-06 15:33 37.87240 -6.12029 39000 ft 524 kts 49°
2026-05-06 15:34 37.91881 -6.04855 39000 ft 524 kts 49°
2026-05-06 15:34 37.96051 -5.99306 39000 ft 521 kts 40°
2026-05-06 15:35 38.01784 -5.93684 39002 ft 520 kts 33°
2026-05-06 15:35 38.07817 -5.88686 39000 ft 518 kts 30°
2026-05-06 15:36 38.13965 -5.83928 39000 ft 518 kts 28°
2026-05-06 15:36 38.20177 -5.79197 39000 ft 517 kts 28°
2026-05-06 15:37 38.26325 -5.74480 39000 ft 517 kts 29°
2026-05-06 15:37 38.32469 -5.69695 39000 ft 518 kts 29°
2026-05-06 15:38 38.38589 -5.64854 39000 ft 518 kts 30°
2026-05-06 15:38 38.44693 -5.59962 39000 ft 518 kts 30°
2026-05-06 15:39 38.50812 -5.55005 39000 ft 518 kts 30°
2026-05-06 15:39 38.56862 -5.50065 39000 ft 518 kts 30°
2026-05-06 15:40 38.62943 -5.45116 39000 ft 518 kts 30°
2026-05-06 15:40 38.69042 -5.40175 39000 ft 518 kts 30°
2026-05-06 15:41 38.75146 -5.35235 39000 ft 518 kts 30°
2026-05-06 15:41 38.81237 -5.30298 38980 ft 518 kts 30°
2026-05-06 15:42 38.84299 -5.27812 38682 ft 514 kts 30°
2026-05-06 15:42 38.87285 -5.25381 38515 ft 504 kts 30°
2026-05-06 15:42 38.90198 -5.23006 38342 ft 500 kts 30°
2026-05-06 15:42 38.93140 -5.20604 38166 ft 498 kts 30°
2026-05-06 15:43 38.96051 -5.18226 37992 ft 497 kts 30°
2026-05-06 15:43 38.98869 -5.15606 37810 ft 497 kts 37°
2026-05-06 15:43 39.01365 -5.12471 37636 ft 499 kts 45°
2026-05-06 15:43 39.03550 -5.09071 37466 ft 499 kts 50°
2026-05-06 15:44 39.05574 -5.05401 37292 ft 498 kts 54°
2026-05-06 15:44 39.07424 -5.01659 37119 ft 496 kts 57°
2026-05-06 15:44 39.09191 -4.97816 36943 ft 495 kts 58°
2026-05-06 15:44 39.10875 -4.93988 36769 ft 493 kts 59°
2026-05-06 15:45 39.12551 -4.90096 36592 ft 491 kts 59°
2026-05-06 15:45 39.14194 -4.86257 36417 ft 489 kts 59°
2026-05-06 15:45 39.15837 -4.82445 36242 ft 487 kts 59°
2026-05-06 15:45 39.17497 -4.78670 36067 ft 485 kts 58°
2026-05-06 15:46 39.19379 -4.75037 35889 ft 482 kts 52°
2026-05-06 15:46 39.21454 -4.71653 35716 ft 480 kts 48°
2026-05-06 15:46 39.23669 -4.68420 35541 ft 478 kts 45°
2026-05-06 15:46 39.25957 -4.65316 35367 ft 476 kts 44°
2026-05-06 15:47 39.28238 -4.62360 35111 ft 473 kts 43°
2026-05-06 15:47 39.30620 -4.59351 34730 ft 463 kts 42°
2026-05-06 15:47 39.32903 -4.56504 34277 ft 434 kts 41°
2026-05-06 15:47 39.35022 -4.53871 33832 ft 423 kts 41°
2026-05-06 15:48 39.37133 -4.51253 33379 ft 415 kts 41°
2026-05-06 15:48 39.39078 -4.48831 32953 ft 409 kts 41°
2026-05-06 15:48 39.41103 -4.46294 32502 ft 403 kts 41°
2026-05-06 15:48 39.43119 -4.43748 32045 ft 398 kts 41°
2026-05-06 15:49 39.45054 -4.41281 31598 ft 393 kts 42°
2026-05-06 15:49 39.46990 -4.38794 31144 ft 386 kts 42°
2026-05-06 15:49 39.48818 -4.36419 30688 ft 362 kts 42°
2026-05-06 15:49 39.50556 -4.34145 30224 ft 343 kts 42°
2026-05-06 15:50 39.52193 -4.31996 29765 ft 329 kts 42°
2026-05-06 15:50 39.53770 -4.29925 29310 ft 321 kts 42°
2026-05-06 15:50 39.55333 -4.27876 28854 ft 316 kts 42°
2026-05-06 15:50 39.56880 -4.25850 28399 ft 312 kts 42°
2026-05-06 15:51 39.58380 -4.23885 27938 ft 305 kts 42°
2026-05-06 15:51 39.59858 -4.21946 27461 ft 299 kts 41°
2026-05-06 15:51 39.61296 -4.20057 26984 ft 293 kts 41°
2026-05-06 15:51 39.62721 -4.18186 26504 ft 288 kts 41°
2026-05-06 15:52 39.64114 -4.16355 26026 ft 284 kts 41°
2026-05-06 15:52 39.65503 -4.14530 25544 ft 280 kts 41°
2026-05-06 15:52 39.66855 -4.12752 25070 ft 278 kts 41°
2026-05-06 15:52 39.68243 -4.10929 24597 ft 287 kts 41°
2026-05-06 15:53 39.69656 -4.09076 24136 ft 296 kts 41°
2026-05-06 15:53 39.71134 -4.07136 23664 ft 302 kts 41°
2026-05-06 15:53 39.72612 -4.05190 23197 ft 307 kts 42°
2026-05-06 15:53 39.74124 -4.03194 22724 ft 311 kts 42°
2026-05-06 15:54 39.75656 -4.01169 22250 ft 314 kts 42°
2026-05-06 15:54 39.77180 -3.99151 21782 ft 317 kts 42°
2026-05-06 15:54 39.78731 -3.97095 21310 ft 320 kts 42°
2026-05-06 15:54 39.80297 -3.95020 20836 ft 322 kts 42°
2026-05-06 15:55 39.81862 -3.92947 20365 ft 324 kts 42°
2026-05-06 15:55 39.83458 -3.90831 19886 ft 325 kts 42°
2026-05-06 15:55 39.85008 -3.88769 19407 ft 309 kts 42°
2026-05-06 15:55 39.86458 -3.86834 18929 ft 294 kts 42°
2026-05-06 15:56 39.87877 -3.84939 18445 ft 287 kts 42°
2026-05-06 15:56 39.89260 -3.83100 17968 ft 283 kts 42°
2026-05-06 15:56 39.90632 -3.81277 17491 ft 280 kts 42°
2026-05-06 15:56 39.91980 -3.79484 17013 ft 273 kts 42°
2026-05-06 15:57 39.93285 -3.77745 16533 ft 264 kts 42°
2026-05-06 15:57 39.94560 -3.76044 16048 ft 256 kts 41°
2026-05-06 15:57 39.95787 -3.74407 15570 ft 250 kts 41°
2026-05-06 15:57 39.96989 -3.72805 15092 ft 245 kts 41°
2026-05-06 15:58 39.98181 -3.71216 14610 ft 241 kts 41°
2026-05-06 15:58 39.99336 -3.69675 14131 ft 238 kts 41°
2026-05-06 15:58 40.00494 -3.68129 13629 ft 236 kts 41°
2026-05-06 15:58 40.01634 -3.66608 13129 ft 234 kts 41°
2026-05-06 15:59 40.02780 -3.65077 12540 ft 235 kts 41°
2026-05-06 15:59 40.03915 -3.63562 11925 ft 236 kts 41°
2026-05-06 15:59 40.05082 -3.62002 11116 ft 245 kts 41°
2026-05-06 15:59 40.06351 -3.60317 9793 ft 270 kts 42°
2026-05-06 16:00 40.07693 -3.58533 8581 ft 282 kts 42°
2026-05-06 16:00 40.09028 -3.56741 7943 ft 270 kts 43°
2026-05-06 16:00 40.10324 -3.54992 7305 ft 260 kts 43°
2026-05-06 16:00 40.11547 -3.53342 6685 ft 252 kts 43°
2026-05-06 16:01 40.12758 -3.51711 6081 ft 244 kts 43°
2026-05-06 16:01 40.13891 -3.50188 5889 ft 218 kts 43°
2026-05-06 16:01 40.14914 -3.48809 5853 ft 206 kts 43°
2026-05-06 16:01 40.15891 -3.47493 5819 ft 200 kts 43°
2026-05-06 16:02 40.16855 -3.46193 5787 ft 196 kts 43°
2026-05-06 16:02 40.17794 -3.44927 5757 ft 193 kts 44°
2026-05-06 16:02 40.18713 -3.43687 5727 ft 189 kts 44°
2026-05-06 16:02 40.19631 -3.42448 5696 ft 187 kts 44°
2026-05-06 16:03 40.20537 -3.41231 5668 ft 185 kts 44°
2026-05-06 16:03 40.21399 -3.39997 5641 ft 184 kts 45°
2026-05-06 16:03 40.22333 -3.38845 5619 ft 183 kts 39°
2026-05-06 16:03 40.23386 -3.37893 5617 ft 183 kts 31°
2026-05-06 16:04 40.24522 -3.37195 5618 ft 183 kts 21°
2026-05-06 16:04 40.25336 -3.36866 5620 ft 183 kts 15°
2026-05-06 16:04 40.26599 -3.36598 5605 ft 183 kts
2026-05-06 16:04 40.27878 -3.36604 5581 ft 183 kts 357°
2026-05-06 16:05 40.29524 -3.37018 5548 ft 183 kts 345°
2026-05-06 16:05 40.30326 -3.37398 5531 ft 183 kts 339°
2026-05-06 16:05 40.31461 -3.38165 5506 ft 183 kts 331°
2026-05-06 16:05 40.32485 -3.39141 5481 ft 183 kts 322°
2026-05-06 16:06 40.33355 -3.40355 5439 ft 184 kts 310°
2026-05-06 16:06 40.34085 -3.41790 5377 ft 187 kts 304°
2026-05-06 16:06 40.34855 -3.43154 5272 ft 186 kts 308°
2026-05-06 16:06 40.35707 -3.44403 5164 ft 186 kts 313°
2026-05-06 16:07 40.36704 -3.45547 4904 ft 192 kts 319°
2026-05-06 16:07 40.37718 -3.46684 4723 ft 191 kts 320°
2026-05-06 16:07 40.38737 -3.47779 4481 ft 193 kts 321°
2026-05-06 16:07 40.39813 -3.48896 4098 ft 203 kts 322°
2026-05-06 16:08 40.40959 -3.50049 3740 ft 208 kts 322°
2026-05-06 16:08 40.42130 -3.51210 3286 ft 216 kts 323°
2026-05-06 16:08 40.43317 -3.52398 2805 ft 209 kts 322°
2026-05-06 16:08 40.44436 -3.53537 2449 ft 197 kts 322°
2026-05-06 16:09 40.45497 -3.54596 2119 ft 187 kts 322°
2026-05-06 16:09 40.46467 -3.55580 2019 ft 167 kts 322°
2026-05-06 16:09 40.47165 -3.56288 2018 ft 72 kts 323°
2026-05-06 16:09 40.47359 -3.56481 2018 ft 21 kts 322°
2026-05-06 16:10 40.47451 -3.56574 2018 ft 13 kts 322°
2026-05-06 16:10 40.47498 -3.56621 2018 ft 4 kts 322°
2026-05-06 16:10 40.47512 -3.56635 2018 ft 4 kts 322°
2026-05-06 16:10 40.47556 -3.56679 2018 ft 14 kts 322°
2026-05-06 16:11 40.47658 -3.56775 2018 ft 18 kts 332°
2026-05-06 16:11 40.47755 -3.56822 2018 ft 12 kts 343°
2026-05-06 16:11 40.47811 -3.56843 2018 ft 5 kts 344°
2026-05-06 16:11 40.47826 -3.56849 2018 ft 0 kts 344°
2026-05-06 16:12 40.47854 -3.56860 2018 ft 12 kts 344°
2026-05-06 16:12 40.47952 -3.56895 2018 ft 16 kts 345°
2026-05-06 16:12 40.48049 -3.56930 2018 ft 12 kts 345°
2026-05-06 16:12 40.48115 -3.56954 2018 ft 8 kts 345°
2026-05-06 16:13 40.48155 -3.56968 2018 ft 5 kts 344°
2026-05-06 16:13 40.48188 -3.56981 2018 ft 6 kts 344°
2026-05-06 16:13 40.48241 -3.57000 2018 ft 10 kts 345°
2026-05-06 16:13 40.48318 -3.57013 2018 ft 13 kts 358°
2026-05-06 16:14 40.48417 -3.57014 2018 ft 15 kts 360°
2026-05-06 16:14 40.48518 -3.57014 2018 ft 15 kts 360°
2026-05-06 16:14 40.48622 -3.57014 2018 ft 15 kts
2026-05-06 16:14 40.48716 -3.57014 2018 ft 12 kts
2026-05-06 16:15 40.48787 -3.57014 2018 ft 9 kts
2026-05-06 16:15 40.48837 -3.57014 2018 ft 6 kts
2026-05-06 16:15 40.48868 -3.57013 2018 ft 4 kts
2026-05-06 16:15 40.48920 -3.57013 2018 ft 3 kts
2026-05-06 16:16 40.48942 -3.57013 2018 ft 6 kts
2026-05-06 16:16 40.48979 -3.57013 2018 ft 2 kts
2026-05-06 16:16 40.48985 -3.57013 2018 ft 2 kts
2026-05-06 16:16 40.49009 -3.57013 2018 ft 4 kts
2026-05-06 16:17 40.49020 -3.57012 2018 ft 1 kts
2026-05-06 16:17 40.49032 -3.57003 2018 ft 2 kts 40°
2026-05-06 16:17 40.49038 -3.56988 2018 ft 2 kts 69°
2026-05-06 16:17 40.49038 -3.56964 2018 ft 4 kts 91°
2026-05-06 16:18 40.49038 -3.56921 2018 ft 4 kts 89°
2026-05-06 16:18 40.49038 -3.56884 2018 ft 3 kts 89°
2026-05-06 16:18 40.49038 -3.56880 2018 ft 0 kts 89°
2026-05-06 16:20 -34.83629 -56.01796 105 ft 0 kts 145°